Location: Twentynine Palms Airport
(34.1316°N, 115.9458°W)
Time: 01:34:10
(UTC-07:00)

Oscar 19 - Visible Passes

Search period start: 24 August 2016 00:00
Search period end: 03 September 2016 00:00
Orbit: 774 x 790 km, 98.5° (Epoch: 23 August)

Date Brightness Start Highest point End Pass type
(mag) Time Alt. Az. Time Alt. Az. Time Alt. Az.
24 Aug 13.0 02:15:59 10° NNE 02:17:27 19° NNE 02:17:27 19° NNE visible
25 Aug 13.4 01:44:26 10° NNE 01:45:11 14° NNE 01:45:11 14° NNE visible
25 Aug 12.9 03:24:43 10° NNW 03:25:44 14° NNW 03:25:44 14° NNW visible
26 Aug 12.9 02:52:01 10° N 02:53:28 18° NNW 02:53:28 18° NNW visible
27 Aug 13.1 02:19:57 10° N 02:21:12 18° N 02:21:12 18° N visible
28 Aug 13.4 01:48:20 10° NNE 01:48:55 13° NNE 01:48:55 13° NNE visible
28 Aug 13.0 03:28:52 10° NNW 03:29:28 12° NNW 03:29:28 12° NNW visible
29 Aug 13.0 02:56:03 10° N 02:57:12 16° NNW 02:57:12 16° NNW visible
30 Aug 13.2 02:23:55 10° N 02:24:56 16° N 02:24:56 16° N visible
31 Aug 13.5 01:52:15 10° NNE 01:52:39 12° NNE 01:52:39 12° NNE visible
31 Aug 13.2 03:33:02 10° NNW 03:33:12 11° NNW 03:33:12 11° NNW visible
01 Sep 13.1 03:00:06 10° N 03:00:56 14° NNW 03:00:56 14° NNW visible
02 Sep 13.3 02:27:53 10° N 02:28:39 14° N 02:28:39 14° N visible
